星链-5697 (STARLINK-5697 )

导读 | 豆包AI

STARLINK-5697是美国SpaceX公司制造的星链系列商业通信卫星,于2023年2月12日由猎鹰9号火箭从美国空军东部试验靶场发射升空。卫星运行在近地轨道,当前近地点约560公里、远地点约562公里,倾角43.0033°,整星湿质量305公斤,承担商用通信任务,是星链全球宽带互联网星座组网的重要组成部分。

基本信息
目录编号:
55589
目录名称:
STARLINK-5697
国际标识:
2023-020W
轨道中心:
EARTH
卫星名称:
星链-5697
卫星全名:
星链-5697 (STARLINK-5697 )
卫星状态:
在轨 (已飞行1127 天)
发射日期:
2023-02-12 UTC
国别 :
美国 (US)
星等 :
--
轨道信息
数据来源 国际轨道数据
星历时间: 2026-03-15T14:00:01+0800
10小时前
查看轨道信息
半长轴: 6884.63km
偏心率: 0.0001342
轨道倾角: 42.999°
近地点辐角 289.480°
升交点赤经 333.533°
平近点角 163.047°
近地点: 505.569km
远地点: 507.417km
周期: 94.750分钟
每日圈数: 15.19784
详细信息
固有亮度:
5
最大亮度:
2.5
卫星平台:
Starlink v1.5
覆盖范围:
全球
运营商:
太空探索技术公司
运营商所在国:
美国
制造商(研发单位):
太空探索技术公司
制造商所在国:
美国
使用方式:
暂无
卫星简介
星链(Starlink)计划是由太空探索技术公司(SpaceX)提出的一个巨型低轨卫星互联网星座项目,计划在2019年至2024年间在太空搭建由约1.2万颗卫星组成的“星链”网络,其中1584颗将部署在地球上空550千米处的近地轨道,并从2020年开始工作。该卫星仍在工作。
2D轨道图
3D轨道图
轨道高度分析图
轨道倾角分析图
轨道综合分析图
查看轨道综合分析图